Ambler, AK

1:17 AM AKDT on June 24, 2017 (GMT -0800)
Ambler

Weather History for PAFM - January, 2013

Change the Weather History Date:

Sunday, January 20, 2013

  Actual Average Record
Temperature  
Mean Temperature 3 °F -  
Max Temperature 8 °F 2 °F 39 °F (2008)
Min Temperature -2 °F -4 °F -62 °F (1989)
Degree Days  
Heating Degree Days 62    
Moisture  
Dew Point -6 °F    
Average Humidity 64    
Maximum Humidity 79    
Minimum Humidity 46    
Precipitation  
Precipitation 0.00 in - - ()
Sea Level Pressure  
Sea Level Pressure 30.13 in    
Wind  
Wind Speed 8 mph (NNE)    
Max Wind Speed 10 mph    
Max Gust Speed 17 mph    
Visibility 9 miles    
Events      
Averages and records for this station are not official NWS values.
T = Trace of Precipitation, MM = Missing Value Source: NWS Daily Summary

Daily Weather History Graph

Daily Weather History Graph

Search for Another Location

Airport or City:

Trip Planner

Search our weather history database for the weather conditions in past years. The results will help you decide how hot, cold, wet, or windy it might be!

Date:

Astronomy

Jan. 20, 2013 Rise Set
Actual Time 11:22 AM AKST 4:03 PM AKST
Civil Twilight 10:02 AM AKST 5:23 PM AKST
Nautical Twilight 8:50 AM AKST 6:35 PM AKST
Astronomical Twilight 7:46 AM AKST 7:40 PM AKST
Moon 11:20 AM AKST (1/20) 5:51 AM AKST (1/20)
Length of Visible Light 7h 20m
Length of Day
4h 40m
Waxing Gibbous, 67% of the Moon is Illuminated
Jan 20
Waxing Gibbous
Jan 26
Full
Feb 3
Last Quarter
Feb 9
New
Feb 17
First Quarter

Hourly Weather History & Observations

Time (AKST) Temp. Windchill Dew Point Humidity Pressure Visibility Wind Dir Wind Speed Gust Speed Precip Events Conditions
12:16 AM -0.4 °F -14.7 °F -16.6 °F 46% 30.21 in 10.0 mi NNE 8.1 mph - N/A   Overcast
12:36 AM -0.4 °F -15.7 °F -16.6 °F 46% 30.20 in 10.0 mi NE 9.2 mph - N/A   Overcast
12:56 AM -0.4 °F -15.7 °F -16.6 °F 46% 30.19 in 10.0 mi NE 9.2 mph 17.3 mph N/A   Overcast
1:16 AM -2.2 °F -16.8 °F -16.6 °F 50% 30.19 in 10.0 mi NNE 8.1 mph - N/A   Overcast
1:36 AM -2.2 °F -15.6 °F -16.6 °F 50% 30.18 in 10.0 mi NE 6.9 mph - N/A   Overcast
1:56 AM -2.2 °F -18.0 °F -16.6 °F 50% 30.18 in 10.0 mi NE 9.2 mph - N/A   Overcast
2:16 AM -0.4 °F -13.4 °F -16.6 °F 46% 30.17 in 10.0 mi NNE 6.9 mph 16.1 mph N/A   Overcast
2:36 AM -0.4 °F -13.4 °F -16.6 °F 46% 30.18 in 10.0 mi NE 6.9 mph - N/A   Overcast
2:56 AM -0.4 °F -14.7 °F -16.6 °F 46% 30.17 in 10.0 mi NNE 8.1 mph - N/A   Overcast
3:36 AM -0.4 °F -15.7 °F -14.8 °F 51% 30.16 in 10.0 mi NNE 9.2 mph 16.1 mph N/A   Overcast
3:56 AM -0.4 °F -14.7 °F -16.6 °F 46% 30.16 in 10.0 mi NE 8.1 mph - N/A   Mostly Cloudy
4:16 AM -0.4 °F -16.7 °F -14.8 °F 51% 30.14 in 10.0 mi NNE 10.4 mph - N/A   Mostly Cloudy
4:36 AM -0.4 °F -15.7 °F -14.8 °F 51% 30.14 in 10.0 mi NE 9.2 mph - N/A   Mostly Cloudy
4:56 AM -0.4 °F -15.7 °F -14.8 °F 51% 30.13 in 10.0 mi NNE 9.2 mph - N/A   Mostly Cloudy
5:16 AM 1.4 °F -12.5 °F -14.8 °F 47% 30.13 in 10.0 mi NE 8.1 mph - N/A   Mostly Cloudy
5:36 AM 1.4 °F -11.3 °F -14.8 °F 47% 30.13 in 10.0 mi NE 6.9 mph - N/A   Overcast
5:56 AM 1.4 °F -13.5 °F -14.8 °F 47% 30.12 in 10.0 mi NE 9.2 mph - N/A   Overcast
6:16 AM 1.4 °F -12.5 °F -14.8 °F 47% 30.12 in 10.0 mi NE 8.1 mph - N/A   Overcast
6:36 AM 1.4 °F -13.5 °F -13.0 °F 51% 30.11 in 10.0 mi NNE 9.2 mph - N/A   Overcast
6:56 AM 1.4 °F -13.5 °F - N/A% 30.10 in 10.0 mi NNE 9.2 mph 16.1 mph N/A   Overcast
7:16 AM 1.4 °F -12.5 °F -14.8 °F 47% 30.10 in 10.0 mi NE 8.1 mph - N/A   Overcast
7:36 AM 1.4 °F -12.5 °F -11.2 °F 56% 30.09 in 10.0 mi NE 8.1 mph - N/A   Overcast
7:56 AM 1.4 °F -12.5 °F -11.2 °F 56% 30.09 in 10.0 mi NE 8.1 mph 16.1 mph N/A   Overcast
8:16 AM 1.4 °F -13.5 °F -11.2 °F 56% 30.09 in 10.0 mi NNE 9.2 mph - N/A   Overcast
8:36 AM 3.2 °F -9.1 °F -11.2 °F 51% 30.10 in 10.0 mi ENE 6.9 mph - N/A   Overcast
8:56 AM 3.2 °F -10.3 °F -11.2 °F 51% 30.10 in 4.0 mi NE 8.1 mph - N/A   Overcast
9:16 AM 1.4 °F -11.3 °F -7.6 °F 66% 30.10 in 1.8 mi NNE 6.9 mph - N/A   Overcast
9:36 AM 1.4 °F -12.5 °F -5.8 °F 72% 30.10 in 2.0 mi NNE 8.1 mph - N/A   Overcast
9:56 AM 3.2 °F -9.1 °F -4.0 °F 72% 30.10 in 2.0 mi NE 6.9 mph - N/A   Overcast
10:16 AM 3.2 °F -10.3 °F -4.0 °F 72% 30.10 in 2.5 mi NE 8.1 mph - N/A   Overcast
10:36 AM 3.2 °F -10.3 °F -4.0 °F 72% 30.10 in 2.5 mi NE 8.1 mph - N/A   Overcast
10:56 AM 3.2 °F -9.1 °F -4.0 °F 72% 30.11 in 2.5 mi NNE 6.9 mph - N/A   Overcast
11:16 AM 3.2 °F -12.2 °F -2.2 °F 78% 30.11 in 1.2 mi NNE 10.4 mph - N/A   Overcast
11:36 AM 3.2 °F -9.1 °F -2.2 °F 78% 30.11 in 2.5 mi NE 6.9 mph - N/A   Overcast
11:56 AM 3.2 °F -11.3 °F -2.2 °F 78% 30.10 in 2.5 mi NE 9.2 mph - N/A   Overcast
12:16 PM 3.2 °F -9.1 °F -2.2 °F 78% 30.11 in 8.0 mi NE 6.9 mph - N/A   Overcast
12:36 PM 5.0 °F -6.9 °F -2.2 °F 72% 30.10 in 10.0 mi NE 6.9 mph - N/A   Overcast
12:56 PM 6.8 °F -5.9 °F 1.4 °F 79% 30.10 in 10.0 mi NNE 8.1 mph - N/A   Overcast
1:16 PM 6.8 °F -4.8 °F -0.4 °F 72% 30.11 in 10.0 mi NNE 6.9 mph - N/A   Overcast
1:36 PM 6.8 °F -3.5 °F -0.4 °F 72% 30.10 in 10.0 mi NNE 5.8 mph - N/A   Overcast
1:56 PM 6.8 °F -4.8 °F 1.4 °F 79% 30.10 in 10.0 mi North 6.9 mph - N/A   Overcast
2:16 PM 6.8 °F -3.5 °F 1.4 °F 79% 30.10 in 10.0 mi NNE 5.8 mph - N/A   Overcast
2:36 PM 8.6 °F -1.3 °F -0.4 °F 67% 30.10 in 10.0 mi North 5.8 mph - N/A   Overcast
3:16 PM 6.8 °F -4.8 °F 1.4 °F 79% 30.09 in 10.0 mi NNE 6.9 mph - N/A   Overcast
3:36 PM 8.6 °F 0.1 °F 1.4 °F 73% 30.10 in 10.0 mi North 4.6 mph - N/A   Overcast
3:56 PM 8.6 °F -2.6 °F -0.4 °F 67% 30.10 in 10.0 mi NNE 6.9 mph - N/A   Overcast
4:16 PM 8.6 °F -1.3 °F -0.4 °F 67% 30.11 in 10.0 mi NNE 5.8 mph - N/A   Overcast
4:36 PM 8.6 °F 0.1 °F 1.4 °F 73% 30.11 in 10.0 mi North 4.6 mph - N/A   Overcast
4:56 PM 8.6 °F 2.0 °F 1.4 °F 73% 30.11 in 10.0 mi NNE 3.5 mph - N/A   Overcast
5:16 PM 8.6 °F -1.3 °F -0.4 °F 67% 30.11 in 10.0 mi NNE 5.8 mph - N/A   Overcast
5:36 PM 8.6 °F -1.3 °F -0.4 °F 67% 30.11 in 10.0 mi NNE 5.8 mph - N/A   Overcast
5:56 PM 8.6 °F 2.0 °F -0.4 °F 67% 30.12 in 10.0 mi NNE 3.5 mph - N/A   Overcast
6:16 PM 8.6 °F -2.6 °F 1.4 °F 73% 30.11 in 10.0 mi North 6.9 mph - N/A   Overcast
6:36 PM 8.6 °F -1.3 °F -0.4 °F 67% 30.11 in 10.0 mi NNE 5.8 mph - N/A   Mostly Cloudy
6:56 PM 6.8 °F -4.8 °F -0.4 °F 72% 30.12 in 10.0 mi North 6.9 mph - N/A   Mostly Cloudy
7:16 PM 6.8 °F -3.5 °F -2.2 °F 67% 30.13 in 10.0 mi NE 5.8 mph - N/A   Overcast
7:36 PM 6.8 °F -4.8 °F -0.4 °F 72% 30.12 in 10.0 mi NNE 6.9 mph - N/A   Overcast
7:56 PM 6.8 °F -4.8 °F -0.4 °F 72% 30.12 in 10.0 mi NNE 6.9 mph - N/A   Overcast
8:16 PM 6.8 °F -4.8 °F -0.4 °F 72% 30.13 in 10.0 mi NNE 6.9 mph - N/A   Mostly Cloudy
8:36 PM 8.6 °F -3.7 °F -0.4 °F 67% 30.13 in 10.0 mi NNE 8.1 mph - N/A   Overcast
8:56 PM 8.6 °F -2.6 °F 1.4 °F 73% 30.13 in 10.0 mi NNE 6.9 mph - N/A   Mostly Cloudy
9:16 PM 8.6 °F -2.6 °F 1.4 °F 73% 30.14 in 10.0 mi NNE 6.9 mph - N/A   Partly Cloudy
9:36 PM 8.6 °F -2.6 °F -0.4 °F 67% 30.14 in 10.0 mi NNE 6.9 mph - N/A   Clear
9:56 PM 8.6 °F 0.1 °F -0.4 °F 67% 30.15 in 10.0 mi NNE 4.6 mph - N/A   Mostly Cloudy
10:16 PM 6.8 °F -3.5 °F 1.4 °F 79% 30.15 in 10.0 mi North 5.8 mph - N/A   Scattered Clouds
10:36 PM 6.8 °F -3.5 °F -0.4 °F 72% 30.15 in 10.0 mi NNE 5.8 mph - N/A   Clear
10:56 PM 6.8 °F -3.5 °F -0.4 °F 72% 30.15 in 10.0 mi NNE 5.8 mph - N/A   Clear
11:16 PM 6.8 °F -3.5 °F -0.4 °F 72% 30.16 in 10.0 mi NNE 5.8 mph - N/A   Mostly Cloudy
11:36 PM 6.8 °F -4.8 °F -0.4 °F 72% 30.16 in 10.0 mi NNE 6.9 mph - N/A   Scattered Clouds
11:56 PM 6.8 °F -3.5 °F -2.2 °F 67% 30.16 in 10.0 mi NNE 5.8 mph - N/A   Clear